Flag for U.S.A. Weather past 2 weeks in Brattleboro, Vermont, U.S.A.

Now
37 °F

Overcast.


Feels Like: 31 °F
Forecast: 29 / 54 °F
Wind: 8 mph from Northwest

Location: Keene / Dillant

Current Time: Apr 25, 2015 at 12:39:24 AM

Latest Report: Apr 24, 2015 at 11:35 PM


Visibility: 10 mi

Pressure: 29.82 "Hg

Humidity: 52%

Dew point: 21 °F

Location of BrattleboroLocation

Historic Weather in Brattleboro — Graph

°F

Brattleboro temperature yesterday

Maximum temperature yesterday: 43 °F (at 2:15 PM)
Minimum temperature yesterday: 34 °F (at 12:15 AM)
Average temperature yesterday: 39 °F

Past Weeks' High & Low Weather Summary

 TemperatureHumidityPressure
High72 °F (Apr 13, 2:55 PM)100% (Apr 10, 4:55 PM)30.49 "Hg (Apr 10, 4:55 PM)
Low25 °F (Apr 12, 6:15 AM)14% (Apr 16, 3:55 PM)29.52 "Hg (Apr 22, 4:15 PM)
Average47 °F60%29.98 "Hg
* Reported Apr 9 11:15 PM — Apr 24 11:15 PM, Brattleboro, Weather by CustomWeather, © 2015

Note: Actual official high and low records may vary slightly from our data, if they occured in-between our weather recording intervals... More about our weather records

Advertising

Brattleboro weather history for previous 24 hours

 ConditionsComfort  
Time TempWeatherWind HumidityBarometerVisibility
11:15 PM
Fri, Apr 24
37 °FOvercast.9 mph48%29.82 "Hg10 mi
10:55 PM37 °FOvercast.7 mph48%29.82 "Hg10 mi
10:35 PM39 °FOvercast.8 mph45%29.82 "Hg10 mi
10:15 PM39 °FOvercast.7 mph45%29.82 "Hg10 mi
9:55 PM39 °FOvercast.12 mph45%29.83 "Hg10 mi
8:55 PM39 °FOvercast.8 mph48%29.81 "Hg10 mi
8:35 PM39 °FOvercast.7 mph48%29.81 "Hg10 mi
7:35 PM41 °FOvercast.10 mph42%29.79 "Hg10 mi
7:15 PM41 °FOvercast.10 mph42%29.78 "Hg10 mi
6:55 PM41 °FOvercast.9 mph42%29.78 "Hg10 mi
6:35 PM43 °FOvercast.7 mph39%29.78 "Hg10 mi
6:15 PM43 °FOvercast.12 mph39%29.77 "Hg10 mi
5:35 PM43 °FOvercast.9 mph39%29.77 "Hg10 mi
5:15 PM43 °FOvercast.13 mph39%29.76 "Hg10 mi
4:55 PM43 °FOvercast.8 mph39%29.76 "Hg10 mi
4:35 PM43 °FOvercast.14 mph39%29.75 "Hg10 mi
4:15 PM43 °FOvercast.10 mph39%29.75 "Hg10 mi
3:55 PM43 °FOvercast.14 mph39%29.74 "Hg10 mi
3:35 PM43 °FOvercast.9 mph39%29.74 "Hg10 mi
3:15 PM43 °FOvercast.13 mph39%29.74 "Hg10 mi
2:55 PM43 °FOvercast.12 mph39%29.74 "Hg10 mi
2:35 PM43 °FOvercast.13 mph39%29.74 "Hg10 mi
2:15 PM43 °FOvercast.15 mph39%29.74 "Hg10 mi
1:55 PM41 °FOvercast.14 mph42%29.75 "Hg10 mi
1:35 PM41 °FMostly cloudy.9 mph45%29.75 "Hg10 mi
1:15 PM41 °FMostly cloudy.15 mph45%29.75 "Hg10 mi
12:55 PM41 °FMostly cloudy.17 mph45%29.75 "Hg10 mi
12:35 PM39 °FMostly cloudy.7 mph48%29.75 "Hg10 mi
12:15 PM39 °FMostly cloudy.12 mph45%29.76 "Hg10 mi
11:55 AM39 °FMore clouds than sun.9 mph48%29.76 "Hg10 mi
11:35 AM39 °FMostly cloudy.13 mph48%29.76 "Hg10 mi
11:15 AM39 °FMostly cloudy.10 mph48%29.76 "Hg10 mi
10:55 AM39 °FMostly cloudy.6 mph48%29.76 "Hg10 mi
10:35 AM39 °FMostly cloudy.12 mph48%29.76 "Hg10 mi
10:15 AM37 °FMore clouds than sun.14 mph56%29.76 "Hg10 mi
9:55 AM37 °FMostly cloudy.15 mph52%29.76 "Hg10 mi
9:35 AM37 °FCloudy.10 mph56%29.77 "Hg10 mi
9:15 AM37 °FCloudy.10 mph60%29.77 "Hg10 mi
8:55 AM37 °FMostly cloudy.13 mph56%29.77 "Hg10 mi
8:35 AM37 °FMostly cloudy.10 mph52%29.77 "Hg10 mi
8:15 AM37 °FMore clouds than sun.10 mph56%29.76 "Hg10 mi
7:55 AM37 °FOvercast.10 mph56%29.76 "Hg10 mi
7:35 AM37 °FOvercast.7 mph52%29.76 "Hg10 mi
7:15 AM37 °FOvercast.9 mph52%29.76 "Hg10 mi
6:55 AM36 °FOvercast.6 mph56%29.76 "Hg10 mi
6:35 AM36 °FOvercast.6 mph60%29.75 "Hg10 mi
6:15 AM37 °FOvercast.5 mph56%29.75 "Hg10 mi
5:55 AM37 °FOvercast.5 mph56%29.74 "Hg10 mi
5:35 AM37 °FOvercast.6 mph60%29.73 "Hg10 mi
5:15 AM37 °FOvercast.No wind56%29.73 "Hg10 mi
4:55 AM37 °FOvercast.7 mph60%29.72 "Hg10 mi
4:35 AM37 °FOvercast.6 mph60%29.72 "Hg10 mi
4:15 AM37 °FMostly cloudy.7 mph60%29.72 "Hg10 mi
3:55 AM37 °FOvercast.7 mph60%29.72 "Hg10 mi
3:35 AM37 °FOvercast.3 mph60%29.71 "Hg10 mi
3:15 AM36 °FOvercast.5 mph70%29.71 "Hg10 mi
2:55 AM36 °FOvercast.3 mph70%29.70 "Hg10 mi
2:35 AM36 °FOvercast.No wind70%29.70 "Hg10 mi
2:15 AM36 °FOvercast.No wind70%29.70 "Hg10 mi
1:55 AM36 °FOvercast.3 mph70%29.70 "Hg10 mi
1:35 AM34 °FMostly cloudy.3 mph75%29.70 "Hg10 mi
1:15 AM34 °FOvercast.No wind81%29.70 "Hg10 mi
12:55 AM34 °FMostly cloudy.No wind75%29.71 "Hg10 mi
12:35 AM34 °FMostly cloudy.No wind75%29.71 "Hg10 mi
12:15 AM34 °FMostly cloudy.No wind75%29.71 "Hg10 mi
Weather by CustomWeather, © 2015

See weather overviewHow to use our weather pages